Location: Bun Machan
(52.1403°N, 7.3744°W)
Time: 02:53:27
(UTC+00:00)

Cosmos 2123 Rocket - Pass Details

Date: 14 July 2020
Orbit: 960 x 993 km, 82.9° (Epoch: 04 August)

Event Time Altitude Azimuth Distance (km) Brightness Sun altitude
Rises 00:41:31 0° 348° (NNW) 3,666 8.6 -16.2°
Reaches altitude 10° 00:44:02 10° 346° (NNW) 2,712 7.5 -16.2°
Maximum altitude 00:50:12 71° 264° (W) 1,017 4.0 -16.2°
Enters shadow 00:54:00 24° 186° (S) 1,857 4.8 -16.1°
